[Iaude] MPEC K117: 2024 KT [a=1.32,e=0.21,i=15.1,H=23.4]

mpec at cfa.harvard.edu mpec at cfa.harvard.edu
Tue May 28 23:57:23 EDT 2024


M.P.E.C. 2024-K117                                 Issued 2024 May 29, 03:56 UT

     The Minor Planet Electronic Circulars contain information on unusual
         minor planets, routine data on comets and natural satellites,
         and occasional editorial announcements.  They are published
    on behalf of Division F of the International Astronomical Union by the
          Minor Planet Center, Smithsonian Astrophysical Observatory,
                          Cambridge, MA 02138, U.S.A.
			  
             Prepared using the Tamkin Foundation Computer Network

                              MPC at CFA.HARVARD.EDU
            URL https://www.minorplanetcenter.net/    ISSN 1523-6714

                                    2024 KT                                     


Observations:
     K24K00T* C2024 05 27.29829115 33 27.849+23 56 11.97         21.64wXEK117F52
     K24K00T  C2024 05 27.31066115 33 25.806+23 55 49.99         21.31wXEK117F52
     K24K00T  C2024 05 27.32304615 33 23.732+23 55 27.54         21.83wXEK117F52
     K24K00T  C2024 05 27.33545015 33 21.690+23 55 05.06         21.60wXEK117F52
     K24K00T  C2024 05 27.42918515 33 04.054+23 51 54.19         21.5 GVEK117H01
     K24K00T KC2024 05 27.43261 15 33 03.56 +23 51 49.0          21.5 RVEK117691
     K24K00T  C2024 05 27.43364815 33 03.349+23 51 45.45         21.4 GVEK117H01
     K24K00T KC2024 05 27.44333715 33 01.840+23 51 28.40         21.23GVEK117I52
     K24K00T KC2024 05 27.44376 15 33 01.82 +23 51 27.1          21.1 RVEK117691
     K24K00T  C2024 05 27.44608615 33 01.386+23 51 21.07         21.0 GVEK117H01
     K24K00T KC2024 05 27.44839715 33 01.066+23 51 18.22         21.79GVEK117I52
     K24K00T  C2024 05 27.45264515 33 00.350+23 51 08.21         22.2 GVEK117H01
     K24K00T KC2024 05 27.45850515 32 59.467+23 50 58.45         21.15GVEK117I52
     K24K00T  C2024 05 27.46264815 33 00.260+23 51 08.17         21.41GVEK117F51
     K24K00T  C2024 05 27.46346715 33 00.094+23 51 06.63         21.37GVEK117F51
     K24K00T  C2024 05 28.22256115 31 07.372+23 26 27.93         21.3 GVEK117H01
     K24K00T  C2024 05 28.22606715 31 06.774+23 26 20.91         21.2 GVEK117H01
     K24K00T  C2024 05 28.23727915 31 04.879+23 25 58.68         21.2 GVEK117H01
     K24K00T KC2024 05 28.24262 15 31 04.16 +23 25 49.4          21.5 RVEK117691
     K24K00T  C2024 05 28.24498415 31 03.565+23 25 43.41         21.7 GVEK117H01
     K24K00T KC2024 05 28.25074 15 31 02.77 +23 25 33.9          21.3 RVEK117691
     K24K00T KC2024 05 28.25887 15 31 01.38 +23 25 17.0          21.6 RVEK117691
     K24K00T KC2024 05 28.30150215 30 54.076+23 23 51.00         21.50GVEK117I52
     K24K00T KC2024 05 28.31280915 30 52.196+23 23 28.54         21.48GVEK117I52
     K24K00T KC2024 05 28.31669015 30 51.516+23 23 20.51         21.56GVEK117I52
     K24K00T KC2024 05 29.13882515 28 46.67 +22 54 46.0          21.4 GVEK117H21
     K24K00T KC2024 05 29.14442015 28 45.67 +22 54 34.2          21.3 GVEK117H21
     K24K00T KC2024 05 29.14721815 28 45.23 +22 54 28.4          21.0 GVEK117H21
     K24K00T KC2024 05 29.15001515 28 44.76 +22 54 22.7          21.1 GVEK117H21

Observer details:
691 Steward Observatory, Kitt Peak-Spacewatch.  Observer M. T. Read.  0.9-m
    f/3 reflector + CCD.
F51 Pan-STARRS 1, Haleakala.  Observers J. Herman, T. Lowe, P. Minguez, A.
    Schultz, I. Smith.  Measurers K. Chambers, T. de Boer, J. Fairlamb, H.
    Gao, M. Huber, C.-C. Lin, E. Magnier, Y. Ramanjooloo, R. Wainscoat, R.
    Weryk.  1.8-m Ritchey-Chretien + CCD.
F52 Pan-STARRS 2, Haleakala.  Observers J. Herman, T. Lowe, P. Minguez, A.
    Schultz, I. Smith.  Measurers K. Chambers, T. de Boer, J. Fairlamb, H.
    Gao, M. Huber, C.-C. Lin, E. Magnier, Y. Ramanjooloo, R. Wainscoat, R.
    Weryk.  1.8-m Ritchey-Chretien + CCD.
H01 Magdalena Ridge Observatory, Socorro.  Observers W. H. Ryan, E. V. Ryan.
    Measurer W. H. Ryan.  2.4-m f/8.9 Ritchey-Chretien + CCD.
H21 Astronomical Research Observatory, Westfield.  Observer R. Holmes.
    Measurers T. Linder, R. Holmes, L. Horn.  0.76-m f/3.0 astrograph + CCD.
I52 Steward Observatory, Mt. Lemmon Station.  Observer R. A. Kowalski.
    Measurers T. Beuden, V. F. Carvajal, D. Fay, J. B. Fazekas, D. C. Fuls, A.
    R. Gibbs, A. D. Grauer, H. Groeller, J. K. Hogan, R. A. Kowalski, S. M.
    Larson, G. J. Leonard, D. Rankin, R. L. Seaman, F. C. Shelly, K. W.
    Wierzchos.  1.0-m prime focus + CCD.

Orbital elements:
2024 KT                                                  Earth MOID = 0.0618 AU
Epoch 2024 Mar. 31.0 TT = JDT 2460400.5                 MPC                     
M 279.58342              (2000.0)            P               Q                  
n   0.64779396     Peri.  218.30918     +0.56667862     +0.78164635             
a   1.3228526      Node    87.71406     -0.67694758     +0.62197733             
e   0.2118423      Incl.   15.11707     -0.46969917     +0.04661754             
P   1.52           H   23.41          G   0.15           U   8                  
Residuals in seconds of arc
240527 F52  0.0   0.1-    240527 I52  0.2+  0.3-    240528 691  0.6-  0.6+
240527 F52  0.0   0.0     240527 H01  0.1-  0.0     240528 691  0.7-  0.1-
240527 F52  0.2-  0.1-    240527 I52  0.1+  0.2-    240528 I52  0.6-  0.1-
240527 F52  0.1+  0.2-    240527 F51  0.2+  0.0     240528 I52  0.1+  0.4+
240527 H01  0.1+  0.0     240527 F51  0.1-  0.0     240528 I52  0.2-  0.3+
240527 691  0.1-  0.9-    240528 H01  0.1-  0.2+    240529 H21  0.2+  0.2-
240527 H01  0.1+  0.0     240528 H01  0.1-  0.1+    240529 H21  0.4-  0.2-
240527 I52  0.1-  0.0     240528 H01  0.0   0.1+    240529 H21  0.1+  0.1-
240527 691  0.4+  1.0-    240528 691  0.5-  0.0     240529 H21  0.3+  0.2+
240527 H01  0.1+  0.0     240528 H01  0.1-  0.1+

Ephemeris:
2024 KT                  a,e,i = 1.32, 0.21, 15                  q = 1.0426
Date    TT    R. A. (2000) Decl.     Delta      r    Elong.  Phase     V
2024 04 29    16 16 06.9 +26 53 36   0.3229  1.2421   130.7    37.9    22.9
...
2024 05 14    16 00 35.9 +27 38 44   0.2492  1.1943   132.9    38.3    22.3
...
2024 05 22    15 45 41.6 +26 06 20   0.2140  1.1698   133.5    38.9    22.0
...
2024 05 28    15 31 40.6 +23 33 58   0.1897  1.1521   133.5    39.7    21.7
2024 05 29    15 29 07.3 +22 59 59   0.1859  1.1493   133.4    39.8    21.6
2024 05 30    15 26 30.4 +22 23 14   0.1821  1.1464   133.4    40.0    21.6
...
2024 06 05    15 09 42.7 +17 38 17   0.1610  1.1298   132.6    41.4    21.3
...
2024 06 13    14 45 10.5 +07 57 10   0.1382  1.1092   129.9    44.6    21.0
...
2024 06 28    13 56 11.5 -20 08 38   0.1195  1.0767   117.3    57.0    21.0

A. U. Tomatic                (C) Copyright 2024 MPC           M.P.E.C. 2024-K117





More information about the Iaude mailing list